owner,sensor,date,latitude,longitude,sea_surface_height_above_sea_level,qcFlag 
COMPS,ioos:station:USF.COMPS:ARP:1,2012-10-01T00:00:00Z,28.4330,-82.6670,-0.214,1111122 
COMPS,ioos:station:USF.COMPS:ARP:1,2012-10-01T00:06:00Z,28.4330,-82.6670,-0.225,1111122 
COMPS,ioos:station:USF.COMPS:ARP:1,2012-10-01T00:12:00Z,28.4330,-82.6670,-0.235,1111122 
COMPS,ioos:station:USF.COMPS:ARP:1,2012-10-01T00:18:00Z,28.4330,-82.6670,-0.244,1111122 
COMPS,ioos:station:USF.COMPS:ARP:1,2012-10-01T00:24:00Z,28.4330,-82.6670,-0.253,1111122 
COMPS,ioos:station:USF.COMPS:ARP:1,2012-10-01T00:30:00Z,28.4330,-82.6670,-0.261,1111122 
COMPS,ioos:station:USF.COMPS:ARP:1,2012-10-01T00:36:00Z,28.4330,-82.6670,-0.267,1111122 
COMPS,ioos:station:USF.COMPS:ARP:1,2012-10-01T00:42:00Z,28.4330,-82.6670,-0.272,1111122 
COMPS,ioos:station:USF.COMPS:ARP:1,2012-10-01T00:48:00Z,28.4330,-82.6670,-0.271,1111122 
COMPS,ioos:station:USF.COMPS:ARP:1,2012-10-01T00:54:00Z,28.4330,-82.6670,-0.269,1111122 
COMPS,ioos:station:USF.COMPS:ARP:1,2012-10-01T01:00:00Z,28.4330,-82.6670,-0.264,1111122 
COMPS,ioos:station:USF.COMPS:ARP:1,2012-10-01T01:06:00Z,28.4330,-82.6670,-0.257,1111122 
COMPS,ioos:station:USF.COMPS:ARP:1,2012-10-01T01:12:00Z,28.4330,-82.6670,-0.248,1111122 
COMPS,ioos:station:USF.COMPS:ARP:1,2012-10-01T01:18:00Z,28.4330,-82.6670,-0.238,1111122 
COMPS,ioos:station:USF.COMPS:ARP:1,2012-10-01T01:24:00Z,28.4330,-82.6670,-0.228,1111122 
COMPS,ioos:station:USF.COMPS:ARP:1,2012-10-01T01:30:00Z,28.4330,-82.6670,-0.216,1111122 
COMPS,ioos:station:USF.COMPS:ARP:1,2012-10-01T01:36:00Z,28.4330,-82.6670,-0.204,1111122 
COMPS,ioos:station:USF.COMPS:ARP:1,2012-10-01T01:42:00Z,28.4330,-82.6670,-0.191,1111122 
COMPS,ioos:station:USF.COMPS:ARP:1,2012-10-01T01:48:00Z,28.4330,-82.6670,-0.177,1111122 
COMPS,ioos:station:USF.COMPS:ARP:1,2012-10-01T01:54:00Z,28.4330,-82.6670,-0.16,1111122 
COMPS,ioos:station:USF.COMPS:ARP:1,2012-10-01T02:00:00Z,28.4330,-82.6670,-0.144,1111122 
COMPS,ioos:station:USF.COMPS:ARP:1,2012-10-01T02:06:00Z,28.4330,-82.6670,-0.127,1111122 
COMPS,ioos:station:USF.COMPS:ARP:1,2012-10-01T02:12:00Z,28.4330,-82.6670,-0.111,1111122 
COMPS,ioos:station:USF.COMPS:ARP:1,2012-10-01T02:18:00Z,28.4330,-82.6670,-0.093,1111122 
COMPS,ioos:station:USF.COMPS:ARP:1,2012-10-01T02:24:00Z,28.4330,-82.6670,-0.074,1111122 
COMPS,ioos:station:USF.COMPS:ARP:1,2012-10-01T02:30:00Z,28.4330,-82.6670,-0.054,1111122 
COMPS,ioos:station:USF.COMPS:ARP:1,2012-10-01T02:36:00Z,28.4330,-82.6670,-0.034,1111122 
COMPS,ioos:station:USF.COMPS:ARP:1,2012-10-01T02:42:00Z,28.4330,-82.6670,-0.012,1111122 
COMPS,ioos:station:USF.COMPS:ARP:1,2012-10-01T02:48:00Z,28.4330,-82.6670,0.01,1111122 
COMPS,ioos:station:USF.COMPS:ARP:1,2012-10-01T02:54:00Z,28.4330,-82.6670,0.033,1111122 
COMPS,ioos:station:USF.COMPS:ARP:1,2012-10-01T03:00:00Z,28.4330,-82.6670,0.057,1111122 
COMPS,ioos:station:USF.COMPS:ARP:1,2012-10-01T03:06:00Z,28.4330,-82.6670,0.081,1111122 
COMPS,ioos:station:USF.COMPS:ARP:1,2012-10-01T03:12:00Z,28.4330,-82.6670,0.107,1111122 
COMPS,ioos:station:USF.COMPS:ARP:1,2012-10-01T03:18:00Z,28.4330,-82.6670,0.133,1111122 
COMPS,ioos:station:USF.COMPS:ARP:1,2012-10-01T03:24:00Z,28.4330,-82.6670,0.159,1111122 
COMPS,ioos:station:USF.COMPS:ARP:1,2012-10-01T03:30:00Z,28.4330,-82.6670,0.186,1111122 
COMPS,ioos:station:USF.COMPS:ARP:1,2012-10-01T03:36:00Z,28.4330,-82.6670,0.211,1111122 
COMPS,ioos:station:USF.COMPS:ARP:1,2012-10-01T03:42:00Z,28.4330,-82.6670,0.238,1111122 
COMPS,ioos:station:USF.COMPS:ARP:1,2012-10-01T03:48:00Z,28.4330,-82.6670,0.266,1111122 
COMPS,ioos:station:USF.COMPS:ARP:1,2012-10-01T03:54:00Z,28.4330,-82.6670,0.291,1111122 
COMPS,ioos:station:USF.COMPS:ARP:1,2012-10-01T04:00:00Z,28.4330,-82.6670,0.317,1111122 
COMPS,ioos:station:USF.COMPS:ARP:1,2012-10-01T04:06:00Z,28.4330,-82.6670,0.342,1111122 
COMPS,ioos:station:USF.COMPS:ARP:1,2012-10-01T04:12:00Z,28.4330,-82.6670,0.368,1111122 
COMPS,ioos:station:USF.COMPS:ARP:1,2012-10-01T04:18:00Z,28.4330,-82.6670,0.392,1111122 
COMPS,ioos:station:USF.COMPS:ARP:1,2012-10-01T04:24:00Z,28.4330,-82.6670,0.416,1111122 
COMPS,ioos:station:USF.COMPS:ARP:1,2012-10-01T04:30:00Z,28.4330,-82.6670,0.44,1111122 
COMPS,ioos:station:USF.COMPS:ARP:1,2012-10-01T04:36:00Z,28.4330,-82.6670,0.46,1111122 
COMPS,ioos:station:USF.COMPS:ARP:1,2012-10-01T04:42:00Z,28.4330,-82.6670,0.482,1111122 
COMPS,ioos:station:USF.COMPS:ARP:1,2012-10-01T04:48:00Z,28.4330,-82.6670,0.502,1111122 
COMPS,ioos:station:USF.COMPS:ARP:1,2012-10-01T04:54:00Z,28.4330,-82.6670,0.522,1111122 
COMPS,ioos:station:USF.COMPS:ARP:1,2012-10-01T05:00:00Z,28.4330,-82.6670,0.537,1111122 
COMPS,ioos:station:USF.COMPS:ARP:1,2012-10-01T05:06:00Z,28.4330,-82.6670,0.556,1111122 
COMPS,ioos:station:USF.COMPS:ARP:1,2012-10-01T05:12:00Z,28.4330,-82.6670,0.572,1111122 
COMPS,ioos:station:USF.COMPS:ARP:1,2012-10-01T05:18:00Z,28.4330,-82.6670,0.586,1111122 
COMPS,ioos:station:USF.COMPS:ARP:1,2012-10-01T05:24:00Z,28.4330,-82.6670,0.598,1111122 
COMPS,ioos:station:USF.COMPS:ARP:1,2012-10-01T05:30:00Z,28.4330,-82.6670,0.608,1111122 
COMPS,ioos:station:USF.COMPS:ARP:1,2012-10-01T05:36:00Z,28.4330,-82.6670,0.615,1111122 
COMPS,ioos:station:USF.COMPS:ARP:1,2012-10-01T05:42:00Z,28.4330,-82.6670,0.625,1111122 
COMPS,ioos:station:USF.COMPS:ARP:1,2012-10-01T05:48:00Z,28.4330,-82.6670,0.629,1111122 
COMPS,ioos:station:USF.COMPS:ARP:1,2012-10-01T05:54:00Z,28.4330,-82.6670,0.631,1111122 
COMPS,ioos:station:USF.COMPS:ARP:1,2012-10-01T06:00:00Z,28.4330,-82.6670,0.626,1111122 
COMPS,ioos:station:USF.COMPS:ARP:1,2012-10-01T06:06:00Z,28.4330,-82.6670,0.625,1111122 
COMPS,ioos:station:USF.COMPS:ARP:1,2012-10-01T06:12:00Z,28.4330,-82.6670,0.62,1111122 
COMPS,ioos:station:USF.COMPS:ARP:1,2012-10-01T06:18:00Z,28.4330,-82.6670,0.615,1111122 
COMPS,ioos:station:USF.COMPS:ARP:1,2012-10-01T06:24:00Z,28.4330,-82.6670,0.612,1111122 
COMPS,ioos:station:USF.COMPS:ARP:1,2012-10-01T06:30:00Z,28.4330,-82.6670,0.606,1111122 
COMPS,ioos:station:USF.COMPS:ARP:1,2012-10-01T06:36:00Z,28.4330,-82.6670,0.597,1111122 
COMPS,ioos:station:USF.COMPS:ARP:1,2012-10-01T06:42:00Z,28.4330,-82.6670,0.59,1111122 
COMPS,ioos:station:USF.COMPS:ARP:1,2012-10-01T06:48:00Z,28.4330,-82.6670,0.575,1111122 
COMPS,ioos:station:USF.COMPS:ARP:1,2012-10-01T06:54:00Z,28.4330,-82.6670,0.562,1111122 
COMPS,ioos:station:USF.COMPS:ARP:1,2012-10-01T07:00:00Z,28.4330,-82.6670,0.549,1111122 
COMPS,ioos:station:USF.COMPS:ARP:1,2012-10-01T07:06:00Z,28.4330,-82.6670,0.527,1111122 
COMPS,ioos:station:USF.COMPS:ARP:1,2012-10-01T07:12:00Z,28.4330,-82.6670,0.51,1111122 
COMPS,ioos:station:USF.COMPS:ARP:1,2012-10-01T07:18:00Z,28.4330,-82.6670,0.49,1111122 
COMPS,ioos:station:USF.COMPS:ARP:1,2012-10-01T07:24:00Z,28.4330,-82.6670,0.481,1111122 
COMPS,ioos:station:USF.COMPS:ARP:1,2012-10-01T07:30:00Z,28.4330,-82.6670,0.465,1111122 
COMPS,ioos:station:USF.COMPS:ARP:1,2012-10-01T07:36:00Z,28.4330,-82.6670,0.444,1111122 
COMPS,ioos:station:USF.COMPS:ARP:1,2012-10-01T07:42:00Z,28.4330,-82.6670,0.432,1111122 
COMPS,ioos:station:USF.COMPS:ARP:1,2012-10-01T07:48:00Z,28.4330,-82.6670,0.415,1111122 
COMPS,ioos:station:USF.COMPS:ARP:1,2012-10-01T07:54:00Z,28.4330,-82.6670,0.399,1111122 
COMPS,ioos:station:USF.COMPS:ARP:1,2012-10-01T08:00:00Z,28.4330,-82.6670,0.384,1111122 
COMPS,ioos:station:USF.COMPS:ARP:1,2012-10-01T08:06:00Z,28.4330,-82.6670,0.367,1111122 
COMPS,ioos:station:USF.COMPS:ARP:1,2012-10-01T08:12:00Z,28.4330,-82.6670,0.348,1111122 
COMPS,ioos:station:USF.COMPS:ARP:1,2012-10-01T08:18:00Z,28.4330,-82.6670,0.331,1111122 
COMPS,ioos:station:USF.COMPS:ARP:1,2012-10-01T08:24:00Z,28.4330,-82.6670,0.317,1111122 
COMPS,ioos:station:USF.COMPS:ARP:1,2012-10-01T08:30:00Z,28.4330,-82.6670,0.3,1111122 
COMPS,ioos:station:USF.COMPS:ARP:1,2012-10-01T08:36:00Z,28.4330,-82.6670,0.281,1111122 
COMPS,ioos:station:USF.COMPS:ARP:1,2012-10-01T08:42:00Z,28.4330,-82.6670,0.265,1111122 
COMPS,ioos:station:USF.COMPS:ARP:1,2012-10-01T08:48:00Z,28.4330,-82.6670,0.244,1111122 
COMPS,ioos:station:USF.COMPS:ARP:1,2012-10-01T08:54:00Z,28.4330,-82.6670,0.228,1111122 
COMPS,ioos:station:USF.COMPS:ARP:1,2012-10-01T09:00:00Z,28.4330,-82.6670,0.208,1111122 
COMPS,ioos:station:USF.COMPS:ARP:1,2012-10-01T09:06:00Z,28.4330,-82.6670,0.191,1111122 
COMPS,ioos:station:USF.COMPS:ARP:1,2012-10-01T09:12:00Z,28.4330,-82.6670,0.172,1111122 
COMPS,ioos:station:USF.COMPS:ARP:1,2012-10-01T09:18:00Z,28.4330,-82.6670,0.151,1111122 
COMPS,ioos:station:USF.COMPS:ARP:1,2012-10-01T09:24:00Z,28.4330,-82.6670,0.132,1111122 
COMPS,ioos:station:USF.COMPS:ARP:1,2012-10-01T09:30:00Z,28.4330,-82.6670,0.113,1111122 
COMPS,ioos:station:USF.COMPS:ARP:1,2012-10-01T09:36:00Z,28.4330,-82.6670,0.095,1111122 
COMPS,ioos:station:USF.COMPS:ARP:1,2012-10-01T09:42:00Z,28.4330,-82.6670,0.075,1111122 
COMPS,ioos:station:USF.COMPS:ARP:1,2012-10-01T09:48:00Z,28.4330,-82.6670,0.056,1111122 
COMPS,ioos:station:USF.COMPS:ARP:1,2012-10-01T09:54:00Z,28.4330,-82.6670,0.038,1111122 
COMPS,ioos:station:USF.COMPS:ARP:1,2012-10-01T10:00:00Z,28.4330,-82.6670,0.019,1111122 
COMPS,ioos:station:USF.COMPS:ARP:1,2012-10-01T10:06:00Z,28.4330,-82.6670,0.002,1111122 
COMPS,ioos:station:USF.COMPS:ARP:1,2012-10-01T10:12:00Z,28.4330,-82.6670,-0.016,1111122 
COMPS,ioos:station:USF.COMPS:ARP:1,2012-10-01T10:18:00Z,28.4330,-82.6670,-0.034,1111122 
COMPS,ioos:station:USF.COMPS:ARP:1,2012-10-01T10:24:00Z,28.4330,-82.6670,-0.052,1111122 
COMPS,ioos:station:USF.COMPS:ARP:1,2012-10-01T10:30:00Z,28.4330,-82.6670,-0.07,1111122 
COMPS,ioos:station:USF.COMPS:ARP:1,2012-10-01T10:36:00Z,28.4330,-82.6670,-0.088,1111122 
COMPS,ioos:station:USF.COMPS:ARP:1,2012-10-01T10:42:00Z,28.4330,-82.6670,-0.106,1111122 
COMPS,ioos:station:USF.COMPS:ARP:1,2012-10-01T10:48:00Z,28.4330,-82.6670,-0.123,1111122 
COMPS,ioos:station:USF.COMPS:ARP:1,2012-10-01T10:54:00Z,28.4330,-82.6670,-0.139,1111122 
COMPS,ioos:station:USF.COMPS:ARP:1,2012-10-01T11:00:00Z,28.4330,-82.6670,-0.156,1111122 
COMPS,ioos:station:USF.COMPS:ARP:1,2012-10-01T11:06:00Z,28.4330,-82.6670,-0.172,1111122 
COMPS,ioos:station:USF.COMPS:ARP:1,2012-10-01T11:12:00Z,28.4330,-82.6670,-0.187,1111122 
COMPS,ioos:station:USF.COMPS:ARP:1,2012-10-01T11:18:00Z,28.4330,-82.6670,-0.203,1111122 
COMPS,ioos:station:USF.COMPS:ARP:1,2012-10-01T11:24:00Z,28.4330,-82.6670,-0.218,1111122 
COMPS,ioos:station:USF.COMPS:ARP:1,2012-10-01T11:30:00Z,28.4330,-82.6670,-0.233,1111122 
COMPS,ioos:station:USF.COMPS:ARP:1,2012-10-01T11:36:00Z,28.4330,-82.6670,-0.247,1111122 
COMPS,ioos:station:USF.COMPS:ARP:1,2012-10-01T11:42:00Z,28.4330,-82.6670,-0.261,1111122 
COMPS,ioos:station:USF.COMPS:ARP:1,2012-10-01T11:48:00Z,28.4330,-82.6670,-0.274,1111122 
COMPS,ioos:station:USF.COMPS:ARP:1,2012-10-01T11:54:00Z,28.4330,-82.6670,-0.288,1111122 
COMPS,ioos:station:USF.COMPS:ARP:1,2012-10-01T12:00:00Z,28.4330,-82.6670,-0.298,1111122 
COMPS,ioos:station:USF.COMPS:ARP:1,2012-10-01T12:06:00Z,28.4330,-82.6670,-0.308,1111122 
COMPS,ioos:station:USF.COMPS:ARP:1,2012-10-01T12:12:00Z,28.4330,-82.6670,-0.318,1111122 
COMPS,ioos:station:USF.COMPS:ARP:1,2012-10-01T12:18:00Z,28.4330,-82.6670,-0.328,1111122 
COMPS,ioos:station:USF.COMPS:ARP:1,2012-10-01T12:24:00Z,28.4330,-82.6670,-0.337,1111122 
COMPS,ioos:station:USF.COMPS:ARP:1,2012-10-01T12:30:00Z,28.4330,-82.6670,-0.346,1111122 
COMPS,ioos:station:USF.COMPS:ARP:1,2012-10-01T12:36:00Z,28.4330,-82.6670,-0.356,1111122 
COMPS,ioos:station:USF.COMPS:ARP:1,2012-10-01T12:42:00Z,28.4330,-82.6670,-0.364,1111122 
COMPS,ioos:station:USF.COMPS:ARP:1,2012-10-01T12:48:00Z,28.4330,-82.6670,-0.376,1111122 
COMPS,ioos:station:USF.COMPS:ARP:1,2012-10-01T12:54:00Z,28.4330,-82.6670,-0.385,1111122 
COMPS,ioos:station:USF.COMPS:ARP:1,2012-10-01T13:00:00Z,28.4330,-82.6670,-0.397,1111122 
COMPS,ioos:station:USF.COMPS:ARP:1,2012-10-01T13:06:00Z,28.4330,-82.6670,-0.407,1111122 
COMPS,ioos:station:USF.COMPS:ARP:1,2012-10-01T13:12:00Z,28.4330,-82.6670,-0.414,1111122 
COMPS,ioos:station:USF.COMPS:ARP:1,2012-10-01T13:18:00Z,28.4330,-82.6670,-0.422,1111122 
COMPS,ioos:station:USF.COMPS:ARP:1,2012-10-01T13:24:00Z,28.4330,-82.6670,-0.428,1111122 
COMPS,ioos:station:USF.COMPS:ARP:1,2012-10-01T13:30:00Z,28.4330,-82.6670,-0.435,1111122 
COMPS,ioos:station:USF.COMPS:ARP:1,2012-10-01T13:36:00Z,28.4330,-82.6670,-0.44,1111122 
COMPS,ioos:station:USF.COMPS:ARP:1,2012-10-01T13:42:00Z,28.4330,-82.6670,-0.447,1111122 
COMPS,ioos:station:USF.COMPS:ARP:1,2012-10-01T13:48:00Z,28.4330,-82.6670,-0.447,1111122 
COMPS,ioos:station:USF.COMPS:ARP:1,2012-10-01T13:54:00Z,28.4330,-82.6670,-0.449,1111122 
COMPS,ioos:station:USF.COMPS:ARP:1,2012-10-01T14:00:00Z,28.4330,-82.6670,-0.447,1111122 
COMPS,ioos:station:USF.COMPS:ARP:1,2012-10-01T14:06:00Z,28.4330,-82.6670,-0.445,1111122 
COMPS,ioos:station:USF.COMPS:ARP:1,2012-10-01T14:12:00Z,28.4330,-82.6670,-0.444,1111122 
COMPS,ioos:station:USF.COMPS:ARP:1,2012-10-01T14:18:00Z,28.4330,-82.6670,-0.442,1111122 
COMPS,ioos:station:USF.COMPS:ARP:1,2012-10-01T14:24:00Z,28.4330,-82.6670,-0.434,1111122 
COMPS,ioos:station:USF.COMPS:ARP:1,2012-10-01T14:30:00Z,28.4330,-82.6670,-0.425,1111122 
COMPS,ioos:station:USF.COMPS:ARP:1,2012-10-01T14:36:00Z,28.4330,-82.6670,-0.416,1111122 
COMPS,ioos:station:USF.COMPS:ARP:1,2012-10-01T14:42:00Z,28.4330,-82.6670,-0.406,1111122 
COMPS,ioos:station:USF.COMPS:ARP:1,2012-10-01T14:48:00Z,28.4330,-82.6670,-0.391,1111122 
COMPS,ioos:station:USF.COMPS:ARP:1,2012-10-01T14:54:00Z,28.4330,-82.6670,-0.375,1111122 
COMPS,ioos:station:USF.COMPS:ARP:1,2012-10-01T15:00:00Z,28.4330,-82.6670,-0.358,1111122 
COMPS,ioos:station:USF.COMPS:ARP:1,2012-10-01T15:06:00Z,28.4330,-82.6670,-0.338,1111122 
COMPS,ioos:station:USF.COMPS:ARP:1,2012-10-01T15:12:00Z,28.4330,-82.6670,-0.316,1111122 
COMPS,ioos:station:USF.COMPS:ARP:1,2012-10-01T15:18:00Z,28.4330,-82.6670,-0.295,1111122 
COMPS,ioos:station:USF.COMPS:ARP:1,2012-10-01T15:24:00Z,28.4330,-82.6670,-0.269,1111122 
COMPS,ioos:station:USF.COMPS:ARP:1,2012-10-01T15:30:00Z,28.4330,-82.6670,-0.244,1111122 
COMPS,ioos:station:USF.COMPS:ARP:1,2012-10-01T15:36:00Z,28.4330,-82.6670,-0.217,1111122 
COMPS,ioos:station:USF.COMPS:ARP:1,2012-10-01T15:42:00Z,28.4330,-82.6670,-0.189,1111122 
COMPS,ioos:station:USF.COMPS:ARP:1,2012-10-01T15:48:00Z,28.4330,-82.6670,-0.156,1111122 
COMPS,ioos:station:USF.COMPS:ARP:1,2012-10-01T15:54:00Z,28.4330,-82.6670,-0.124,1111122 
COMPS,ioos:station:USF.COMPS:ARP:1,2012-10-01T16:00:00Z,28.4330,-82.6670,-0.092,1111122 
COMPS,ioos:station:USF.COMPS:ARP:1,2012-10-01T16:06:00Z,28.4330,-82.6670,-0.06,1111122 
COMPS,ioos:station:USF.COMPS:ARP:1,2012-10-01T16:12:00Z,28.4330,-82.6670,-0.027,1111122 
COMPS,ioos:station:USF.COMPS:ARP:1,2012-10-01T16:18:00Z,28.4330,-82.6670,0.009,1111122 
COMPS,ioos:station:USF.COMPS:ARP:1,2012-10-01T16:24:00Z,28.4330,-82.6670,0.043,1111122 
COMPS,ioos:station:USF.COMPS:ARP:1,2012-10-01T16:30:00Z,28.4330,-82.6670,0.077,1111122 
COMPS,ioos:station:USF.COMPS:ARP:1,2012-10-01T16:36:00Z,28.4330,-82.6670,0.113,1111122 
COMPS,ioos:station:USF.COMPS:ARP:1,2012-10-01T16:42:00Z,28.4330,-82.6670,0.148,1111122 
COMPS,ioos:station:USF.COMPS:ARP:1,2012-10-01T16:48:00Z,28.4330,-82.6670,0.185,1111122 
COMPS,ioos:station:USF.COMPS:ARP:1,2012-10-01T16:54:00Z,28.4330,-82.6670,0.217,1111122 
COMPS,ioos:station:USF.COMPS:ARP:1,2012-10-01T17:00:00Z,28.4330,-82.6670,0.249,1111122 
COMPS,ioos:station:USF.COMPS:ARP:1,2012-10-01T17:06:00Z,28.4330,-82.6670,0.284,1111122 
COMPS,ioos:station:USF.COMPS:ARP:1,2012-10-01T17:12:00Z,28.4330,-82.6670,0.314,1111122 
COMPS,ioos:station:USF.COMPS:ARP:1,2012-10-01T17:18:00Z,28.4330,-82.6670,0.342,1111122 
COMPS,ioos:station:USF.COMPS:ARP:1,2012-10-01T17:24:00Z,28.4330,-82.6670,0.371,1111122 
COMPS,ioos:station:USF.COMPS:ARP:1,2012-10-01T17:30:00Z,28.4330,-82.6670,0.399,1111122 
COMPS,ioos:station:USF.COMPS:ARP:1,2012-10-01T17:36:00Z,28.4330,-82.6670,0.425,1111122 
COMPS,ioos:station:USF.COMPS:ARP:1,2012-10-01T17:42:00Z,28.4330,-82.6670,0.447,1111122 
COMPS,ioos:station:USF.COMPS:ARP:1,2012-10-01T17:48:00Z,28.4330,-82.6670,0.475,1111122 
COMPS,ioos:station:USF.COMPS:ARP:1,2012-10-01T17:54:00Z,28.4330,-82.6670,0.497,1111122 
COMPS,ioos:station:USF.COMPS:ARP:1,2012-10-01T18:00:00Z,28.4330,-82.6670,0.518,1111122 
COMPS,ioos:station:USF.COMPS:ARP:1,2012-10-01T18:06:00Z,28.4330,-82.6670,0.539,1111122 
COMPS,ioos:station:USF.COMPS:ARP:1,2012-10-01T18:12:00Z,28.4330,-82.6670,0.557,1111122 
COMPS,ioos:station:USF.COMPS:ARP:1,2012-10-01T18:18:00Z,28.4330,-82.6670,0.577,1111122 
COMPS,ioos:station:USF.COMPS:ARP:1,2012-10-01T18:24:00Z,28.4330,-82.6670,0.592,1111122 
COMPS,ioos:station:USF.COMPS:ARP:1,2012-10-01T18:30:00Z,28.4330,-82.6670,0.61,1111122 
COMPS,ioos:station:USF.COMPS:ARP:1,2012-10-01T18:36:00Z,28.4330,-82.6670,0.618,1111122 
COMPS,ioos:station:USF.COMPS:ARP:1,2012-10-01T18:42:00Z,28.4330,-82.6670,0.631,1111122 
COMPS,ioos:station:USF.COMPS:ARP:1,2012-10-01T18:48:00Z,28.4330,-82.6670,0.641,1111122 
COMPS,ioos:station:USF.COMPS:ARP:1,2012-10-01T18:54:00Z,28.4330,-82.6670,0.65,1111122 
COMPS,ioos:station:USF.COMPS:ARP:1,2012-10-01T19:00:00Z,28.4330,-82.6670,0.661,1111122 
COMPS,ioos:station:USF.COMPS:ARP:1,2012-10-01T19:06:00Z,28.4330,-82.6670,0.662,1111122 
COMPS,ioos:station:USF.COMPS:ARP:1,2012-10-01T19:12:00Z,28.4330,-82.6670,0.666,1111122 
COMPS,ioos:station:USF.COMPS:ARP:1,2012-10-01T19:18:00Z,28.4330,-82.6670,0.664,1111122 
COMPS,ioos:station:USF.COMPS:ARP:1,2012-10-01T19:24:00Z,28.4330,-82.6670,0.657,1111122 
COMPS,ioos:station:USF.COMPS:ARP:1,2012-10-01T19:30:00Z,28.4330,-82.6670,0.657,1111122 
COMPS,ioos:station:USF.COMPS:ARP:1,2012-10-01T19:36:00Z,28.4330,-82.6670,0.647,1111122 
COMPS,ioos:station:USF.COMPS:ARP:1,2012-10-01T19:42:00Z,28.4330,-82.6670,0.64,1111122 
COMPS,ioos:station:USF.COMPS:ARP:1,2012-10-01T19:48:00Z,28.4330,-82.6670,0.623,1111122 
COMPS,ioos:station:USF.COMPS:ARP:1,2012-10-01T19:54:00Z,28.4330,-82.6670,0.609,1111122 
COMPS,ioos:station:USF.COMPS:ARP:1,2012-10-01T20:00:00Z,28.4330,-82.6670,0.594,1111122 
COMPS,ioos:station:USF.COMPS:ARP:1,2012-10-01T20:06:00Z,28.4330,-82.6670,0.58,1111122 
COMPS,ioos:station:USF.COMPS:ARP:1,2012-10-01T20:12:00Z,28.4330,-82.6670,0.564,1111122 
COMPS,ioos:station:USF.COMPS:ARP:1,2012-10-01T20:18:00Z,28.4330,-82.6670,0.553,1111122 
COMPS,ioos:station:USF.COMPS:ARP:1,2012-10-01T20:24:00Z,28.4330,-82.6670,0.534,1111122 
COMPS,ioos:station:USF.COMPS:ARP:1,2012-10-01T20:30:00Z,28.4330,-82.6670,0.517,1111122 
COMPS,ioos:station:USF.COMPS:ARP:1,2012-10-01T20:36:00Z,28.4330,-82.6670,0.505,1111122 
COMPS,ioos:station:USF.COMPS:ARP:1,2012-10-01T20:42:00Z,28.4330,-82.6670,0.488,1111122 
COMPS,ioos:station:USF.COMPS:ARP:1,2012-10-01T20:48:00Z,28.4330,-82.6670,0.464,1111122 
COMPS,ioos:station:USF.COMPS:ARP:1,2012-10-01T20:54:00Z,28.4330,-82.6670,0.45,1111122 
COMPS,ioos:station:USF.COMPS:ARP:1,2012-10-01T21:00:00Z,28.4330,-82.6670,0.432,1111122 
COMPS,ioos:station:USF.COMPS:ARP:1,2012-10-01T21:06:00Z,28.4330,-82.6670,0.414,1111122 
COMPS,ioos:station:USF.COMPS:ARP:1,2012-10-01T21:12:00Z,28.4330,-82.6670,0.396,1111122 
COMPS,ioos:station:USF.COMPS:ARP:1,2012-10-01T21:18:00Z,28.4330,-82.6670,0.375,1111122 
COMPS,ioos:station:USF.COMPS:ARP:1,2012-10-01T21:24:00Z,28.4330,-82.6670,0.355,1111122 
COMPS,ioos:station:USF.COMPS:ARP:1,2012-10-01T21:30:00Z,28.4330,-82.6670,0.334,1111122 
COMPS,ioos:station:USF.COMPS:ARP:1,2012-10-01T21:36:00Z,28.4330,-82.6670,0.315,1111122 
COMPS,ioos:station:USF.COMPS:ARP:1,2012-10-01T21:42:00Z,28.4330,-82.6670,0.293,1111122 
COMPS,ioos:station:USF.COMPS:ARP:1,2012-10-01T21:48:00Z,28.4330,-82.6670,0.275,1111122 
COMPS,ioos:station:USF.COMPS:ARP:1,2012-10-01T21:54:00Z,28.4330,-82.6670,0.257,1111122 
COMPS,ioos:station:USF.COMPS:ARP:1,2012-10-01T22:00:00Z,28.4330,-82.6670,0.243,1111122 
COMPS,ioos:station:USF.COMPS:ARP:1,2012-10-01T22:06:00Z,28.4330,-82.6670,0.229,1111122 
COMPS,ioos:station:USF.COMPS:ARP:1,2012-10-01T22:12:00Z,28.4330,-82.6670,0.211,1111122 
COMPS,ioos:station:USF.COMPS:ARP:1,2012-10-01T22:18:00Z,28.4330,-82.6670,0.191,1111122 
COMPS,ioos:station:USF.COMPS:ARP:1,2012-10-01T22:24:00Z,28.4330,-82.6670,0.174,1111122 
COMPS,ioos:station:USF.COMPS:ARP:1,2012-10-01T22:30:00Z,28.4330,-82.6670,0.16,1111122 
COMPS,ioos:station:USF.COMPS:ARP:1,2012-10-01T22:36:00Z,28.4330,-82.6670,0.143,1111122 
COMPS,ioos:station:USF.COMPS:ARP:1,2012-10-01T22:42:00Z,28.4330,-82.6670,0.123,1111122 
COMPS,ioos:station:USF.COMPS:ARP:1,2012-10-01T22:48:00Z,28.4330,-82.6670,0.104,1111122 
COMPS,ioos:station:USF.COMPS:ARP:1,2012-10-01T22:54:00Z,28.4330,-82.6670,0.088,1111122 
COMPS,ioos:station:USF.COMPS:ARP:1,2012-10-01T23:00:00Z,28.4330,-82.6670,0.072,1111122 
COMPS,ioos:station:USF.COMPS:ARP:1,2012-10-01T23:06:00Z,28.4330,-82.6670,0.054,1111122 
COMPS,ioos:station:USF.COMPS:ARP:1,2012-10-01T23:12:00Z,28.4330,-82.6670,0.04,1111122 
COMPS,ioos:station:USF.COMPS:ARP:1,2012-10-01T23:18:00Z,28.4330,-82.6670,0.025,1111122 
COMPS,ioos:station:USF.COMPS:ARP:1,2012-10-01T23:24:00Z,28.4330,-82.6670,0.012,1111122 
COMPS,ioos:station:USF.COMPS:ARP:1,2012-10-01T23:30:00Z,28.4330,-82.6670,-0.002,1111122 
COMPS,ioos:station:USF.COMPS:ARP:1,2012-10-01T23:36:00Z,28.4330,-82.6670,-0.015,1111122 
COMPS,ioos:station:USF.COMPS:ARP:1,2012-10-01T23:42:00Z,28.4330,-82.6670,-0.03,1111122 
COMPS,ioos:station:USF.COMPS:ARP:1,2012-10-01T23:48:00Z,28.4330,-82.6670,-0.041,1111122 
COMPS,ioos:station:USF.COMPS:ARP:1,2012-10-01T23:54:00Z,28.4330,-82.6670,-0.052,1111122 
COMPS,ioos:station:USF.COMPS:ARP:1,2012-10-02T00:00:00Z,28.4330,-82.6670,-0.061,1111122 
COMPS,ioos:station:USF.COMPS:ARP:1,2012-10-02T00:06:00Z,28.4330,-82.6670,-0.07,1111122 
COMPS,ioos:station:USF.COMPS:ARP:1,2012-10-02T00:12:00Z,28.4330,-82.6670,-0.08,1111122 
COMPS,ioos:station:USF.COMPS:ARP:1,2012-10-02T00:18:00Z,28.4330,-82.6670,-0.088,1111122 
COMPS,ioos:station:USF.COMPS:ARP:1,2012-10-02T00:24:00Z,28.4330,-82.6670,-0.096,1111122 
COMPS,ioos:station:USF.COMPS:ARP:1,2012-10-02T00:30:00Z,28.4330,-82.6670,-0.102,1111122 
COMPS,ioos:station:USF.COMPS:ARP:1,2012-10-02T00:36:00Z,28.4330,-82.6670,-0.105,1111122 
COMPS,ioos:station:USF.COMPS:ARP:1,2012-10-02T00:42:00Z,28.4330,-82.6670,-0.105,1111122 
COMPS,ioos:station:USF.COMPS:ARP:1,2012-10-02T00:48:00Z,28.4330,-82.6670,-0.112,1111122 
COMPS,ioos:station:USF.COMPS:ARP:1,2012-10-02T00:54:00Z,28.4330,-82.6670,-0.113,1111122 
COMPS,ioos:station:USF.COMPS:ARP:1,2012-10-02T01:00:00Z,28.4330,-82.6670,-0.107,1111122 
COMPS,ioos:station:USF.COMPS:ARP:1,2012-10-02T01:06:00Z,28.4330,-82.6670,-0.096,1111122 
COMPS,ioos:station:USF.COMPS:ARP:1,2012-10-02T01:12:00Z,28.4330,-82.6670,-0.083,1111122 
COMPS,ioos:station:USF.COMPS:ARP:1,2012-10-02T01:18:00Z,28.4330,-82.6670,-0.078,1111122 
COMPS,ioos:station:USF.COMPS:ARP:1,2012-10-02T01:24:00Z,28.4330,-82.6670,-0.065,1111122 
COMPS,ioos:station:USF.COMPS:ARP:1,2012-10-02T01:30:00Z,28.4330,-82.6670,-0.07,1111122 
COMPS,ioos:station:USF.COMPS:ARP:1,2012-10-02T01:36:00Z,28.4330,-82.6670,-0.068,1111122 
COMPS,ioos:station:USF.COMPS:ARP:1,2012-10-02T01:42:00Z,28.4330,-82.6670,-0.058,1111122 
COMPS,ioos:station:USF.COMPS:ARP:1,2012-10-02T01:48:00Z,28.4330,-82.6670,-0.053,1111122 
COMPS,ioos:station:USF.COMPS:ARP:1,2012-10-02T01:54:00Z,28.4330,-82.6670,-0.05,1111122 
COMPS,ioos:station:USF.COMPS:ARP:1,2012-10-02T02:00:00Z,28.4330,-82.6670,-0.031,1111122 
COMPS,ioos:station:USF.COMPS:ARP:1,2012-10-02T02:06:00Z,28.4330,-82.6670,-0.02,1111122 
COMPS,ioos:station:USF.COMPS:ARP:1,2012-10-02T02:12:00Z,28.4330,-82.6670,-0.008,1111122 
COMPS,ioos:station:USF.COMPS:ARP:1,2012-10-02T02:18:00Z,28.4330,-82.6670,0.006,1111122 
COMPS,ioos:station:USF.COMPS:ARP:1,2012-10-02T02:24:00Z,28.4330,-82.6670,0.021,1111122 
COMPS,ioos:station:USF.COMPS:ARP:1,2012-10-02T02:30:00Z,28.4330,-82.6670,0.034,1111122 
COMPS,ioos:station:USF.COMPS:ARP:1,2012-10-02T02:36:00Z,28.4330,-82.6670,0.046,1111122 
COMPS,ioos:station:USF.COMPS:ARP:1,2012-10-02T02:42:00Z,28.4330,-82.6670,0.059,1111122 
COMPS,ioos:station:USF.COMPS:ARP:1,2012-10-02T02:48:00Z,28.4330,-82.6670,0.075,1111122 
COMPS,ioos:station:USF.COMPS:ARP:1,2012-10-02T02:54:00Z,28.4330,-82.6670,0.09,1111122 